Le nostre stazioni meteo in Italia

Pubblicità
Il mio iltempo24.it
Coventry/Coundon, Gran Bretagna (99070): Temperatura & dewpoint: 02.04.2020 00:00:00 - 08.04.2020 00:00:00 (BST)Coventry/Coundon, Gran Bretagna (99070): Temperatura -20cm & Temperatura -100cm: 02.04.2020 00:00:00 - 08.04.2020 00:00:00 (BST)Coventry/Coundon, Gran Bretagna (99070): velocità del vento & gusts: 02.04.2020 00:00:00 - 08.04.2020 00:00:00 (BST)Coventry/Coundon, Gran Bretagna (99070): direzione del vento: 02.04.2020 00:00:00 - 08.04.2020 00:00:00 (BST)Coventry/Coundon, Gran Bretagna (99070): ore di luce: 02.04.2020 00:00:00 - 08.04.2020 00:00:00 (BST)Coventry/Coundon, Gran Bretagna (99070): precipitazioni: 02.04.2020 00:00:00 - 08.04.2020 00:00:00 (BST)
Data & Tempo tt [°C] td [°C] tt -20cm [°C] tt -100cm [°C] ff [km/h] ff [kn] fx [km/h] fx [kn] dd sd [min] rr [mm]
08.04.2020 00:00:00 10,8 3,7 - - 4 2 - - ENE 0 0,0
07.04.2020 23:00:00 10,8 4,2 - - 5 3 - - ENE 0 0,0
07.04.2020 22:00:00 12,0 3,4 - - 2 1 - - N 0 0,0
07.04.2020 21:00:00 12,7 3,4 - - 4 2 - - O 0 0,0
07.04.2020 20:00:00 15,2 3,4 - - 4 2 - - S 0 0,0
07.04.2020 19:00:00 16,4 3,6 - - 9 5 - - SSE 18 0,0
07.04.2020 18:00:00 17,2 4,3 - - 11 6 - - SSE 42 0,0
07.04.2020 17:00:00 17,1 3,9 - - 16 9 - - SSE 42 0,0
07.04.2020 16:00:00 18,1 4,2 - - 9 5 - - S 60 0,0
07.04.2020 15:00:00 17,4 5,2 - - 13 7 - - SE 54 0,0
07.04.2020 14:00:00 16,7 4,1 - - 13 7 - - SSE 60 0,0
07.04.2020 13:00:00 16,2 4,6 - - 13 7 - - S 60 0,0
07.04.2020 12:00:00 14,7 4,2 - - 11 6 - - SE 60 0,0
07.04.2020 11:00:00 14,1 4,7 - - 9 5 - - SSE 60 0,0
07.04.2020 10:00:00 11,6 2,7 9,0 8,2 8 4 - - ESE 60 0,0
07.04.2020 09:00:00 9,9 3,6 - - 4 2 - - E 60 0,0
07.04.2020 08:00:00 4,8 3,5 - - 0 0 - - N 54 0,0
07.04.2020 07:00:00 1,4 0,3 - - 2 1 - - E 0 0,0
07.04.2020 06:00:00 2,0 0,3 - - 2 1 - - NNE 0 0,0
07.04.2020 05:00:00 2,5 0,3 - - 4 2 - - N 0 0,0
07.04.2020 04:00:00 3,3 0,7 - - 2 1 - - NNE 0 0,0
07.04.2020 03:00:00 3,3 0,3 - - 2 1 - - NO 0 0,0
07.04.2020 02:00:00 3,8 0,8 - - 4 2 - - O 0 0,0
07.04.2020 01:00:00 5,4 1,1 - - 4 2 - - SSO - 0,0
07.04.2020 00:00:00 5,4 0,4 - - 2 1 - - SSO 0 0,0
06.04.2020 23:00:00 7,0 0,2 - - 4 2 - - NO 0 0,0
06.04.2020 22:00:00 8,8 0,6 - - 8 4 - - NO 0 0,0
06.04.2020 21:00:00 9,7 0,9 - - 5 3 - - NO 0 0,0
06.04.2020 20:00:00 12,2 2,6 - - 5 3 - - NO 6 0,0
06.04.2020 19:00:00 13,9 3,8 - - 11 6 - - O 36 0,0
06.04.2020 18:00:00 14,0 3,9 - - 16 9 - - OSO 48 0,0
06.04.2020 17:00:00 14,9 5,0 - - 13 7 - - O 24 0,0
06.04.2020 16:00:00 14,3 4,3 - - 15 8 - - OSO 12 0,0
06.04.2020 15:00:00 13,9 6,2 - - 9 5 - - SO 12 0,0
06.04.2020 14:00:00 13,2 3,4 - - 18 10 - - OSO 6 0,0
06.04.2020 13:00:00 13,7 4,6 - - 15 8 - - OSO 18 0,0
06.04.2020 12:00:00 14,4 4,7 - - 21 11 - - OSO 54 0,0
06.04.2020 11:00:00 13,0 6,0 - - 15 8 - - OSO 54 0,0
06.04.2020 10:00:00 11,9 6,1 9,0 8,2 18 10 - - O 54 0,0
06.04.2020 09:00:00 11,4 8,5 - - 8 4 - - SO 18 0,0
06.04.2020 08:00:00 10,3 7,9 - - 9 5 - - OSO 0 0,2
06.04.2020 07:00:00 10,1 7,5 - - 11 6 - - OSO 0 0,0
06.04.2020 06:00:00 10,0 8,7 - - 11 6 - - O 0 0,2
06.04.2020 05:00:00 12,8 11,2 - - 11 6 - - SSO 0 0,2
06.04.2020 04:00:00 13,1 9,2 - - 15 8 - - S 0 0,0
06.04.2020 03:00:00 13,3 8,7 - - 15 8 - - S 0 0,0
06.04.2020 02:00:00 13,7 6,7 - - 15 8 - - S 0 0,0
06.04.2020 01:00:00 13,7 6,1 - - 11 6 - - S - 0,0
06.04.2020 00:00:00 14,4 5,5 - - 15 8 - - S 0 0,0
05.04.2020 23:00:00 14,7 4,0 - - 15 8 - - SSE 0 0,0
05.04.2020 22:00:00 15,2 3,5 - - 18 10 - - SSE 0 0,0
05.04.2020 21:00:00 16,0 3,8 - - 16 9 - - SSE 0 0,0
05.04.2020 20:00:00 17,2 4,2 - - 18 10 - - SSE 0 0,0
05.04.2020 19:00:00 18,5 4,3 - - 22 12 46 25 SSE 54 0,0
05.04.2020 18:00:00 19,2 4,3 - - 18 10 - - S 6 0,0
05.04.2020 17:00:00 19,7 3,7 - - 22 12 - - S 6 0,0
05.04.2020 16:00:00 19,3 3,6 - - 21 11 46 25 SSE 0 0,0
05.04.2020 15:00:00 19,0 2,7 - - 26 14 46 25 SSE 0 0,0
05.04.2020 14:00:00 18,8 4,7 - - 24 13 46 25 SSE 30 0,0
05.04.2020 13:00:00 17,1 4,2 - - 24 13 - - SSE 42 0,0
05.04.2020 12:00:00 16,4 3,6 - - 22 12 - - SSE 60 0,0
05.04.2020 11:00:00 15,7 3,5 - - 21 11 - - SSE 60 0,0
05.04.2020 10:00:00 13,0 3,5 8,2 8,0 18 10 - - SE 60 0,0
05.04.2020 09:00:00 10,6 2,8 - - 13 7 - - SE 60 0,0
05.04.2020 08:00:00 8,7 2,9 - - 9 5 - - SSE 54 0,0
05.04.2020 07:00:00 5,3 2,3 - - 8 4 - - SE 0 0,0
05.04.2020 06:00:00 5,8 2,3 - - 11 6 - - ESE 0 0,0
05.04.2020 05:00:00 6,0 2,2 - - 11 6 - - SE 0 0,0
05.04.2020 04:00:00 6,3 2,3 - - 9 5 - - SE 0 0,0
05.04.2020 03:00:00 6,1 1,3 - - 4 2 - - ESE 0 0,0
05.04.2020 02:00:00 6,4 0,8 - - 11 6 - - ESE 0 0,0
05.04.2020 01:00:00 6,2 -0,4 - - 8 4 - - ESE - 0,0
05.04.2020 00:00:00 7,7 -0,5 - - 8 4 - - SE 0 0,0
04.04.2020 23:00:00 8,8 0,3 - - 9 5 - - SSE 0 0,0
04.04.2020 22:00:00 10,0 1,5 - - 11 6 - - SE 0 0,0
04.04.2020 21:00:00 10,9 1,5 - - 8 4 - - SSE 0 0,0
04.04.2020 20:00:00 12,4 1,7 - - 13 7 - - S 18 0,0
04.04.2020 19:00:00 13,6 2,7 - - 13 7 - - SSE 60 0,0
04.04.2020 18:00:00 15,1 3,5 - - 11 6 - - S 36 0,0
04.04.2020 17:00:00 14,8 4,1 - - 13 7 - - S 30 0,0
04.04.2020 16:00:00 14,7 4,5 - - 15 8 - - S 30 0,0
04.04.2020 15:00:00 14,1 5,2 - - 16 9 - - S 18 0,0
04.04.2020 14:00:00 12,5 6,3 - - 11 6 - - S 42 0,0
04.04.2020 13:00:00 10,0 5,8 - - 8 4 - - SSO 0 0,0
04.04.2020 12:00:00 8,1 5,0 - - 9 5 - - SSO 0 0,0
04.04.2020 11:00:00 8,4 4,8 - - 11 6 - - SSO 36 0,0
04.04.2020 10:00:00 8,8 4,6 8,0 8,0 11 6 - - SSO 60 0,0
04.04.2020 09:00:00 7,8 4,4 - - 9 5 - - S 54 0,0
04.04.2020 08:00:00 5,7 3,8 - - 5 3 - - S 30 0,0
04.04.2020 07:00:00 4,0 3,5 - - 5 3 - - SSE 0 0,0
04.04.2020 06:00:00 2,1 1,5 - - 2 1 - - SE 0 0,0
04.04.2020 05:00:00 2,8 2,0 - - 2 1 - - S 0 0,0
04.04.2020 04:00:00 3,5 2,3 - - 4 2 - - OSO 0 0,0
04.04.2020 03:00:00 4,4 2,7 - - 4 2 - - OSO 0 0,0
04.04.2020 02:00:00 4,5 2,7 - - 4 2 - - SSO 0 0,0
04.04.2020 01:00:00 4,5 1,9 - - 2 1 - - OSO - 0,0
04.04.2020 00:00:00 4,4 1,5 - - 4 2 - - O 0 0,0
03.04.2020 23:00:00 4,7 1,5 - - 4 2 - - O 0 0,0
03.04.2020 22:00:00 6,2 2,3 - - 4 2 - - OSO 0 0,0
03.04.2020 21:00:00 7,3 1,0 - - 2 1 - - O 0 0,0
03.04.2020 20:00:00 10,0 1,8 - - 8 4 - - O 18 0,0
03.04.2020 19:00:00 11,9 1,5 - - 13 7 - - OSO 30 0,0
03.04.2020 18:00:00 11,6 1,8 - - 11 6 - - O 0 0,0
03.04.2020 17:00:00 11,6 1,5 - - 9 5 - - O 6 0,0
03.04.2020 16:00:00 11,9 1,5 - - 9 5 - - O 24 0,0
03.04.2020 15:00:00 12,0 1,6 - - 11 6 - - OSO 30 0,0
03.04.2020 14:00:00 11,3 1,5 - - 11 6 - - O 42 0,0
03.04.2020 13:00:00 10,7 0,3 - - 11 6 - - O 36 0,0
03.04.2020 12:00:00 10,0 0,2 - - 9 5 - - OSO 12 0,0
03.04.2020 11:00:00 8,8 -0,5 - - 9 5 - - O 12 0,0
03.04.2020 10:00:00 8,0 1,8 7,9 8,0 9 5 - - ONO 0 0,0
03.04.2020 09:00:00 6,8 3,3 - - 5 3 - - NO 0 0,0
03.04.2020 08:00:00 6,2 3,6 - - 4 2 - - OSO 0 0,0
03.04.2020 07:00:00 5,9 3,4 - - 2 1 - - O 0 0,0
03.04.2020 06:00:00 5,9 3,0 - - 2 1 - - O 0 0,0
03.04.2020 05:00:00 6,1 2,8 - - 4 2 - - ONO 0 0,0
03.04.2020 04:00:00 6,2 2,2 - - 4 2 - - O 0 0,0
03.04.2020 03:00:00 6,4 2,2 - - 4 2 - - O 0 0,0
03.04.2020 02:00:00 6,2 2,2 - - 4 2 - - O 0 0,0
03.04.2020 01:00:00 6,3 2,6 - - 5 3 - - ONO - 0,0
03.04.2020 00:00:00 6,6 3,4 - - 5 3 - - OSO 0 0,0
02.04.2020 23:00:00 6,6 3,6 - - 5 3 - - OSO 0 0,0
02.04.2020 22:00:00 7,2 2,9 - - 11 6 - - NO 0 0,0
02.04.2020 21:00:00 8,8 2,7 - - 9 5 - - NO 0 0,0
02.04.2020 20:00:00 10,1 3,2 - - 15 8 - - ONO 0 0,0
02.04.2020 19:00:00 10,9 2,6 - - 15 8 - - ONO 42 0,0
02.04.2020 18:00:00 11,8 3,3 - - 21 11 - - NO 36 0,0
02.04.2020 17:00:00 12,5 4,3 - - 21 11 - - NO 30 0,0
02.04.2020 16:00:00 11,9 6,7 - - 18 10 - - ONO 18 0,0
02.04.2020 15:00:00 11,9 6,4 - - 16 9 - - O 6 0,0
02.04.2020 14:00:00 11,2 4,9 - - 16 9 - - O 18 0,0
02.04.2020 13:00:00 10,2 5,4 - - 15 8 - - ONO 0 0,0
02.04.2020 12:00:00 10,5 4,4 - - 13 7 - - O 0 0,0
02.04.2020 11:00:00 10,1 3,4 - - 13 7 - - O 30 0,0
02.04.2020 10:00:00 10,2 3,9 7,7 8,0 13 7 - - O 54 0,0
02.04.2020 09:00:00 8,1 4,7 - - 9 5 - - OSO 12 0,0
02.04.2020 08:00:00 6,5 3,6 - - 9 5 - - O 0 0,0
02.04.2020 07:00:00 6,6 3,4 - - 9 5 - - O 0 0,0
02.04.2020 06:00:00 6,7 3,2 - - 8 4 - - O 0 0,0
02.04.2020 05:00:00 6,6 2,9 - - 8 4 - - O 0 0,0
02.04.2020 04:00:00 6,6 2,8 - - 8 4 - - O 0 0,0
02.04.2020 03:00:00 6,6 2,5 - - 8 4 - - ONO 0 0,0
02.04.2020 02:00:00 6,6 2,5 - - 8 4 - - ONO 0 0,0
02.04.2020 01:00:00 6,3 2,3 - - 8 4 - - ONO - 0,0
02.04.2020 00:00:00 6,1 2,2 - - 8 4 - - ONO 0 0,0

tt = Temperatura
td = dewpoint
tt -20cm = Temperatura -20cm
tt -100cm = Temperatura -100cm
ff = velocità del vento
fx = gusts
dd = direzione del vento
sd = ore di luce
rr = precipitazioni

Stazioni seguenti

WeatherPro
AMSI
MeteoEarth